Погода в Кампу-Гранди

Бразилия     20°27′46″S   54°37′08″W
темп.,
°C
ветер,
м/с
пор.,
м/с
влажн.,
%
обл.,
%
осадки,
мм/ч
давл.,
гПа
погр.,
м
28 сентября, вт
вт2823:00+27з11361 0.0 101313
02:00+25всв34450 0.0 101275
05:00+24св38490 0.0 1013169
08:00+30св57320 0.0 1015611
11:00+36ссв34201 0.0 10133794
14:00+37ссз231655 0.0 10083808
17:00+34с36220 0.0 1007409
20:00+29ссз352536 0.0 1009119
29 сентября, ср
ср2923:00+29св242944 0.0 100977
02:00+27с383413 0.0 1008187
05:00+26ссз253821 0.0 1009119
08:00+32сз35295 0.0 1011807
11:00+37зсз43205 0.0 10092930
14:00+38юз231564 0.0 10053889
17:00+35ссз352237 0.0 1005271
20:00+33всв112381 0.0 100714
30 сентября, чт
чт3023:00+30с012649 0.0 100713
02:00+29ссз122938 0.0 100614
05:00+29сз233246 0.0 100771
08:00+33сз472670 0.0 1008695
11:00+36ссз34227 0.0 10071890
14:00+38с551892 0.0 10032674
17:00+35св372193 0.0 1003354
20:00+33ссв372354 0.0 1005160
1 октября, пт
пт123:00+30ссв38286 0.0 1005149
02:00+30с38281 0.0 1004143
05:00+29с310305 0.0 1005203
08:00+34сз711245 0.0 1007946
11:00+39зсз771850 0.0 10064269
14:00+37сз4621100 0.0 10031442
17:00+36ссв362429 0.0 1002422
20:00+31ссз383120 0.2 1004219
2 октября, сб
сб223:00+31з2732100 0.1 1006310
02:00+28сз3642100 0.6 1005121
05:00+27с354550 0.2 100585
08:00+33ссз7123079 0.2 10071074
11:00+38сз71020100 0.0 10052877
14:00+38зсз792199 0.0 10023540
17:00+35сз592648 0.1 1002774
20:00+29зсз494321 0.3 1005253